Бахардок

Turkmenistan     38˚46′58″N   58˚28′58″E
temp.,
°C
wind,
m/s
gust,
m/s
humid.,
%
clouds,
%
prec.,
mm/h
press.,
hPa
HPBL,
m
29 november, sun
sun2923:00+7˚e91547100 0.0 1035399
02:00+6˚e91552100 0.0 1035391
05:00+4˚e9155298 0.0 1034378
08:00+3˚e9155583 0.0 1033346
11:00+6˚e10144368 0.0 1033567
14:00+9˚e9123070 0.0 1031780
17:00+9˚e9123052 0.0 1031779
20:00+8˚e9153496 0.0 1030485
30 november, mon
mon3023:00+7˚e10163998 0.0 1030500
02:00+5˚e81244100 0.0 1028462
05:00+4˚e81146100 0.0 1027433
08:00+4˚e81050100 0.1 1026417
11:00+4˚e5846100 0.1 1027423
14:00+3˚ne5650100 0.5 1026399
17:00+2˚ene4572100 1.6 1027351
20:00+2˚ene347597 0.0 1027301
1 december, tue
tue123:00+3˚ne226999 0.0 1027229
02:00+2˚ne227323 0.0 102733
05:00+2˚ene237412 0.0 102635
08:00+2˚ese23780 0.0 102622
11:00+5˚ese23610 0.0 1027270
14:00+8˚ene33480 0.0 1025433
17:00+9˚ene34470 0.0 1024500
20:00+7˚ene455544 0.0 1025107
2 december, wed
wed223:00+6˚e455622 0.0 102689
02:00+5˚e346318 0.0 102544
05:00+5˚e346826 0.0 102527
08:00+4˚e3369100 0.0 102628
11:00+7˚e345697 0.0 1027268
14:00+10˚ene344730 0.0 1025525
17:00+11˚ene344620 0.0 1024484
20:00+8˚ne465221 0.0 102698
3 december, thu
thu323:00+8˚ene465361 0.0 1026134
02:00+7˚ene4553100 0.0 1026148
05:00+7˚e3452100 0.0 1026105
08:00+6˚ene3554100 0.0 1026134
11:00+8˚e3349100 0.0 1028298
14:00+9˚ne2249100 0.0 1026495
17:00+9˚ne2346100 0.0 1027450
20:00+8˚ne2247100 0.1 1028436